Home   Weather   Radom   Past weeks

Flag for Poland Past Weather in Radom, Poland — Yesterday and Last 2 Weeks

Now
28 °F

Fog.


Feels Like: 28 °F
Forecast: 38 / 45 °F
Wind: 1 mph from Southwest

Location: Kielce

Current Time: Feb 20, 2017 at 7:26:09 am

Latest Report: Feb 20, 2017 at 6:00 am


Visibility: 2 mi

Pressure: 30.13 "Hg

Humidity: 92%

Dew Point: 26 °F

Location of RadomLocation

Past Weather in Radom — Graph

°F

Radom Temperature Yesterday

Maximum temperature yesterday: 37 °F (at 2:00 pm)
Minimum temperature yesterday: 30 °F (at 10:00 pm)
Average temperature yesterday: 34 °F

High & Low Weather Summary for the Past Weeks

 TemperatureHumidityPressure
High49 °F (Feb 16, 2:00 pm)100% (Feb 17, 5:00 pm)30.76 "Hg (Feb 17, 5:00 pm)
Low9 °F (Feb 14, 12:00 am)37% (Feb 10, 3:00 pm)29.73 "Hg (Feb 5, 5:00 am)
Average25 °F80%30.39 "Hg
* Reported Feb 5 5:00 am — Feb 20 5:00 am, Radom, Weather by CustomWeather, © 2017

Note: Actual official high and low records may vary slightly from our data, if they occured in-between our weather recording intervals... More about our weather records

Advertising

Radom Weather History for the Previous 24 Hours

Scroll right to see more
 ConditionsComfort  
Time TempWeatherWind HumidityBarometerVisibility
5:00 am
Mon, Feb 20
30 °FFog.1 mph90%30.12 "Hg2 mi
4:00 am30 °FFog.2 mph93%30.12 "Hg2 mi
3:00 am29 °FFog.1 mph92%30.14 "Hg2 mi
2:00 am29 °FFog.1 mph92%30.16 "Hg2 mi
1:00 am28 °FFog.1 mph89%30.16 "Hg3 mi
12:00 am30 °FFog.1 mph90%30.16 "Hg3 mi
11:00 pm
Sun, Feb 19
30 °FFog.1 mph90%30.16 "Hg4 mi
10:00 pm30 °FFog.No wind89%30.16 "Hg5 mi
9:00 pm30 °FPassing clouds.2 mph88%30.16 "Hg6 mi
8:00 pm32 °FClear.3 mph83%30.16 "Hg6 mi
7:00 pm35 °FPassing clouds.3 mph75%30.16 "Hg6 mi
6:00 pm36 °FFog.2 mph78%30.17 "Hg5 mi
5:00 pm36 °FFog.3 mph83%30.17 "Hg3 mi
4:00 pm36 °FFog.1 mph84%30.19 "Hg3 mi
3:00 pm36 °FOvercast.2 mph82%30.20 "Hg4 mi
2:00 pm37 °FFog.2 mph79%30.22 "Hg5 mi
1:00 pm37 °FFog.2 mph81%30.24 "Hg5 mi
12:00 pm36 °FFog.2 mph88%30.27 "Hg2 mi
11:00 am35 °FLow clouds.1 mph91%30.28 "Hg2 mi
10:00 am34 °FDrizzle. Low clouds.2 mph94%30.29 "Hg2 mi
9:00 am34 °FDrizzle. Low clouds.1 mph96%30.29 "Hg2 mi
8:00 am33 °FFog.2 mph96%30.29 "Hg1 mi
7:00 am33 °FFog.2 mph96%30.29 "Hg1 mi
Weather by CustomWeather, © 2017

See weather overviewHow to use our weather pages